timestamp,surface_pressure_avg,surface_temp_avg,battery_voltage,lat,long
2021-11-23 00:09:00+00:00,303.9413,9.0,12.65,47.84626,-54.09684
2021-11-23 00:19:00+00:00,302.7297,8.99,12.65,47.84626,-54.09684
2021-11-23 00:29:00+00:00,303.918,8.99,12.65,47.84626,-54.09684
2021-11-23 00:39:00+00:00,305.8313,8.97,12.65,47.84626,-54.09684
2021-11-23 00:49:00+00:00,305.9497,8.95,12.65,47.84626,-54.09684
2021-11-23 00:59:00+00:00,303.678,8.94,12.65,47.84626,-54.09684
2021-11-23 01:09:00+00:00,307.353,8.9,12.65,47.84626,-54.09684
2021-11-23 01:19:01+00:00,315.1514,8.8,12.65,47.84626,-54.09684
2021-11-23 01:29:01+00:00,318.378,8.6,12.65,47.84626,-54.09684
2021-11-23 01:39:01+00:00,319.3864,8.5,12.65,47.84626,-54.09684
2021-11-23 01:49:01+00:00,322.2147,8.5,12.65,47.84626,-54.09684
2021-11-23 01:59:01+00:00,323.1946,8.48,12.65,47.84626,-54.09684
2021-11-23 02:09:01+00:00,320.938,8.4,12.65,47.84626,-54.09684
2021-11-23 02:19:00+00:00,321.7296,8.4,12.65,47.84626,-54.09684
2021-11-23 02:29:00+00:00,322.5747,8.4,12.65,47.84626,-54.09684
2021-11-23 02:39:00+00:00,317.7747,8.4,12.65,47.84626,-54.09684
2021-11-23 02:49:00+00:00,307.6913,8.4,12.65,47.84626,-54.09684
2021-11-23 02:59:00+00:00,306.1814,8.4,12.65,47.84626,-54.09684
2021-11-23 03:09:00+00:00,308.383,8.4,12.65,47.84626,-54.09684
2021-11-23 03:19:00+00:00,302.6114,8.4,12.65,47.84626,-54.09684
2021-11-23 03:29:00+00:00,293.6114,8.4,12.65,47.84626,-54.09684
2021-11-23 03:39:00+00:00,299.6247,8.4,12.65,47.84626,-54.09684
2021-11-23 03:49:00+00:00,303.2346,8.4,12.65,47.84626,-54.09684
2021-11-23 03:59:00+00:00,289.6464,8.39,12.65,47.84626,-54.09684
2021-11-23 04:09:00+00:00,277.4897,8.3,12.65,47.84626,-54.09684
2021-11-23 04:19:00+00:00,270.4297,8.3,12.65,47.84626,-54.09684
2021-11-23 04:29:00+00:00,263.0431,8.3,12.65,47.84626,-54.09684
2021-11-23 04:39:00+00:00,260.8814,8.3,12.65,47.84626,-54.09684
2021-11-23 04:49:00+00:00,261.5797,8.3,12.65,47.84626,-54.09684
2021-11-23 04:59:00+00:00,248.3197,8.3,12.65,47.84626,-54.09684
2021-11-23 05:09:00+00:00,231.9148,8.29,12.65,47.84626,-54.09684
2021-11-23 05:19:00+00:00,229.9781,8.28,12.57,47.84626,-54.09684
2021-11-23 05:29:00+00:00,228.6215,8.26,12.57,47.84626,-54.09684
2021-11-23 05:39:00+00:00,217.3632,8.2,12.57,47.84626,-54.09684
2021-11-23 05:49:00+00:00,212.9248,8.2,12.57,47.84626,-54.09684
2021-11-23 05:59:00+00:00,216.3748,8.2,12.57,47.84626,-54.09684
2021-11-23 06:09:00+00:00,215.5264,8.19,12.57,47.84626,-54.09684
2021-11-23 06:19:00+00:00,204.6614,8.12,12.57,47.84626,-54.09684
2021-11-23 06:29:00+00:00,199.4348,8.1,12.57,47.84626,-54.09684
2021-11-23 06:39:00+00:00,204.7564,8.1,12.57,47.84626,-54.09684
2021-11-23 06:49:00+00:00,197.1265,8.1,12.57,47.84626,-54.09684
2021-11-23 06:59:00+00:00,184.0431,8.1,12.57,47.84626,-54.09684
2021-11-23 07:09:00+00:00,190.2215,8.1,12.57,47.84626,-54.09684
2021-11-23 07:19:00+00:00,197.9781,8.1,12.57,47.84626,-54.09684
2021-11-23 07:29:00+00:00,191.1731,8.1,12.57,47.84626,-54.09684
2021-11-23 07:39:00+00:00,192.4781,8.1,12.57,47.84626,-54.09684
2021-11-23 07:49:00+00:00,201.9014,8.1,12.57,47.84626,-54.09684
2021-11-23 07:59:00+00:00,204.5782,8.09,12.57,47.84626,-54.09684
2021-11-23 08:09:00+00:00,208.2314,8.09,12.57,47.84626,-54.09684
2021-11-23 08:19:00+00:00,207.8331,8.09,12.57,47.84626,-54.09684
2021-11-23 08:29:00+00:00,205.0464,8.09,12.57,47.84626,-54.09684
2021-11-23 08:39:00+00:00,215.5231,8.08,12.57,47.84626,-54.09684
2021-11-23 08:49:00+00:00,230.3232,8.05,12.57,47.84626,-54.09684
2021-11-23 08:59:00+00:00,230.0181,8.04,12.57,47.84626,-54.09684
2021-11-23 09:09:00+00:00,226.4898,8.0,12.57,47.84626,-54.09684
2021-11-23 09:19:00+00:00,238.1081,8.0,12.57,47.84626,-54.09684
2021-11-23 09:29:00+00:00,247.8481,8.0,12.57,47.84626,-54.09684
2021-11-23 09:39:00+00:00,248.798,8.0,12.57,47.84626,-54.09684
2021-11-23 09:49:00+00:00,252.4581,8.0,12.57,47.84626,-54.09684
2021-11-23 09:59:00+00:00,264.3331,8.0,12.57,47.84626,-54.09684
2021-11-23 10:09:00+00:00,265.3881,8.0,12.57,47.84626,-54.09684
2021-11-23 10:19:01+00:00,260.4397,8.0,12.57,47.84626,-54.09684
2021-11-23 10:29:01+00:00,257.9247,7.98,12.57,47.84626,-54.09684
2021-11-23 10:39:01+00:00,266.3064,7.97,12.57,47.84626,-54.09684
2021-11-23 10:49:01+00:00,269.8647,7.9,12.57,47.84626,-54.09684
2021-11-23 10:59:01+00:00,266.6414,7.89,12.57,47.84626,-54.09684
2021-11-23 11:09:01+00:00,270.0231,7.89,12.57,47.84626,-54.09684
2021-11-23 11:19:00+00:00,279.6265,7.87,12.57,47.84626,-54.09684
2021-11-23 11:29:00+00:00,281.5397,7.9,12.57,47.84626,-54.09684
2021-11-23 11:39:00+00:00,280.5014,7.8,12.57,47.84626,-54.09684
2021-11-23 11:49:00+00:00,283.918,7.8,12.57,47.84626,-54.09684
2021-11-23 11:59:00+00:00,298.7281,7.8,12.57,47.84626,-54.09684
2021-11-23 12:09:00+00:00,307.2814,7.8,12.57,47.84626,-54.09684
2021-11-23 12:19:00+00:00,312.5947,7.8,12.65,47.84626,-54.09684
2021-11-23 12:29:00+00:00,320.4313,7.82,12.65,47.84626,-54.09684
2021-11-23 12:39:00+00:00,334.4664,7.82,12.65,47.84626,-54.09684
2021-11-23 12:49:00+00:00,339.3229,7.8,12.65,47.84626,-54.09684
2021-11-23 12:59:00+00:00,339.2629,7.8,12.65,47.84626,-54.09684
2021-11-23 13:09:00+00:00,345.4996,7.8,12.65,47.84626,-54.09684
2021-11-23 13:19:00+00:00,348.4913,7.8,12.81,47.84626,-54.09684
2021-11-23 13:29:00+00:00,345.0363,7.82,12.81,47.84626,-54.09684
2021-11-23 13:39:00+00:00,348.7112,7.89,12.81,47.84626,-54.09684
2021-11-23 13:49:00+00:00,350.1746,7.89,12.81,47.84626,-54.09684
2021-11-23 13:59:00+00:00,354.5596,7.87,12.81,47.84626,-54.09684
2021-11-23 14:09:00+00:00,363.4563,7.88,12.81,47.84626,-54.09684
2021-11-23 14:19:01+00:00,364.0547,7.89,12.97,47.84626,-54.09684
2021-11-23 14:29:01+00:00,362.2196,7.9,12.97,47.84626,-54.09684
2021-11-23 14:39:01+00:00,359.9696,7.88,12.97,47.84626,-54.09684
2021-11-23 14:49:01+00:00,363.6529,7.83,12.97,47.84626,-54.09684
2021-11-23 14:59:01+00:00,357.4529,7.84,12.97,47.84626,-54.09684
2021-11-23 15:09:01+00:00,342.6880000000001,7.88,12.97,47.84626,-54.09684
2021-11-23 15:19:00+00:00,336.2063,7.87,13.13,47.84626,-54.09684
2021-11-23 15:29:00+00:00,338.5146,7.8,13.13,47.84626,-54.09684
2021-11-23 15:39:00+00:00,337.0179,7.8,13.13,47.84626,-54.09684
2021-11-23 15:49:00+00:00,324.4096,7.8,13.13,47.84626,-54.09684
2021-11-23 15:59:00+00:00,319.838,7.8,13.13,47.84626,-54.09684
2021-11-23 16:09:00+00:00,323.958,7.8,13.13,47.84626,-54.09684
2021-11-23 16:19:00+00:00,318.4513,7.8,13.37,47.84626,-54.09684
2021-11-23 16:29:00+00:00,308.1346,7.83,13.37,47.84626,-54.09684
2021-11-23 16:39:00+00:00,307.6413,7.86,13.37,47.84626,-54.09684
2021-11-23 16:49:00+00:00,299.763,7.85,13.37,47.84626,-54.09684
2021-11-23 16:59:00+00:00,276.283,7.85,13.37,47.84626,-54.09684
2021-11-23 17:09:00+00:00,261.4497,7.82,13.37,47.84626,-54.09684
2021-11-23 17:19:00+00:00,265.8247,7.82,13.29,47.84626,-54.09684
2021-11-23 17:29:00+00:00,262.6714,7.81,13.29,47.84626,-54.09684
2021-11-23 17:39:00+00:00,246.3948,7.83,13.29,47.84626,-54.09684
2021-11-23 17:49:00+00:00,234.1181,7.85,13.29,47.84626,-54.09684
2021-11-23 17:59:00+00:00,233.3997,7.86,13.29,47.84626,-54.09684
2021-11-23 18:09:00+00:00,238.4731,7.86,13.29,47.84626,-54.09684
2021-11-23 18:19:00+00:00,236.4814,7.87,13.13,47.84626,-54.09684
2021-11-23 18:29:00+00:00,229.8131,7.89,13.13,47.84626,-54.09684
2021-11-23 18:39:00+00:00,223.9598,7.9,13.13,47.84626,-54.09684
2021-11-23 18:49:00+00:00,215.8431,7.9,13.13,47.84626,-54.09684
2021-11-23 18:59:00+00:00,207.0864,7.9,13.13,47.84626,-54.09684
2021-11-23 19:09:00+00:00,197.1948,7.9,13.13,47.84626,-54.09684
2021-11-23 19:19:00+00:00,189.1815,7.9,12.97,47.84626,-54.09684
2021-11-23 19:29:00+00:00,189.7348,7.9,12.97,47.84626,-54.09684
2021-11-23 19:39:00+00:00,186.5365,7.9,12.97,47.84626,-54.09684
2021-11-23 19:49:00+00:00,188.4581,7.9,12.97,47.84626,-54.09684
2021-11-23 19:59:00+00:00,199.3848,7.9,12.97,47.84626,-54.09684
2021-11-23 20:09:00+00:00,204.9148,7.9,12.97,47.84626,-54.09684
2021-11-23 20:19:01+00:00,210.1931,7.9,12.81,47.84626,-54.09684
2021-11-23 20:29:01+00:00,215.7647,7.9,12.81,47.84626,-54.09684
2021-11-23 20:39:01+00:00,218.4464,7.9,12.81,47.84626,-54.09684
2021-11-23 20:49:01+00:00,219.1414,7.9,12.81,47.84626,-54.09684
2021-11-23 20:59:01+00:00,216.7464,7.9,12.81,47.84626,-54.09684
2021-11-23 21:09:01+00:00,219.5014,7.9,12.81,47.84626,-54.09684
2021-11-23 21:19:00+00:00,219.4615,7.9,12.73,47.84626,-54.09684
2021-11-23 21:29:00+00:00,213.4631,7.9,12.73,47.84626,-54.09684
2021-11-23 21:39:00+00:00,219.1864,7.9,12.73,47.84626,-54.09684
2021-11-23 21:49:00+00:00,230.3415,7.86,12.73,47.84626,-54.09684
2021-11-23 21:59:00+00:00,230.2031,7.89,12.73,47.84626,-54.09684
2021-11-23 22:09:00+00:00,227.7664,7.9,12.73,47.84626,-54.09684
2021-11-23 22:19:00+00:00,237.1598,7.9,12.73,47.84626,-54.09684
2021-11-23 22:29:00+00:00,248.808,7.9,12.73,47.84626,-54.09684
2021-11-23 22:39:00+00:00,245.9131,7.9,12.73,47.84626,-54.09684
2021-11-23 22:49:00+00:00,237.3047,7.9,12.73,47.84626,-54.09684
2021-11-23 22:59:00+00:00,240.4214,7.9,12.73,47.84626,-54.09684
2021-11-23 23:09:00+00:00,248.8297,7.9,12.73,47.84626,-54.09684
2021-11-23 23:19:01+00:00,251.2681,7.9,12.65,47.84626,-54.09684
2021-11-23 23:29:01+00:00,248.1598,7.9,12.65,47.84626,-54.09684
2021-11-23 23:39:01+00:00,252.3531,7.9,12.65,47.84626,-54.09684
2021-11-23 23:49:01+00:00,260.6598,7.9,12.65,47.84626,-54.09684
2021-11-23 23:59:01+00:00,263.5831,7.9,12.65,47.84626,-54.09684
